Atlanta Dekalb, GA

11:56 PM EDT on June 23, 2017 (GMT -0400)
Dekalb-Peachtree

Weather History for KPDK - January, 2014

Change the Weather History Date:

Tuesday, January 21, 2014

  Actual Average Record
Temperature  
Mean Temperature 36 °F 42 °F  
Max Temperature 49 °F 52 °F 71 °F (1999)
Min Temperature 22 °F 33 °F 18 °F (2009)
Degree Days  
Heating Degree Days 29 23  
Month to date heating degree days 573 483  
Since 1 July heating degree days 1730 1651  
Moisture  
Dew Point 22 °F    
Average Humidity 51    
Maximum Humidity 64    
Minimum Humidity 38    
Precipitation  
Precipitation 0.00 in 0.18 in 1.71 in (2017)
Month to date precipitation 2.87 2.87  
Year to date precipitation 2.87 2.87  
Snow  
Snow 0.00 in - - ()
Month to date snowfall T  
Since 1 July snowfall T  
Snow Depth 0.00 in    
Sea Level Pressure  
Sea Level Pressure 29.87 in    
Wind  
Wind Speed 14 mph (WNW)    
Max Wind Speed 28 mph    
Max Gust Speed 37 mph    
Visibility 10 miles    
Events      
T = Trace of Precipitation, MM = Missing Value Source: NWS Daily Summary

Daily Weather History Graph

Daily Weather History Graph

Search for Another Location

Airport or City:

Trip Planner

Search our weather history database for the weather conditions in past years. The results will help you decide how hot, cold, wet, or windy it might be!

Date:

Astronomy

Jan. 21, 2014 Rise Set
Actual Time 7:40 AM EST 5:57 PM EST
Civil Twilight 7:13 AM EST 6:24 PM EST
Nautical Twilight 6:43 AM EST 6:54 PM EST
Astronomical Twilight 6:13 AM EST 7:24 PM EST
Moon 11:11 PM EST (1/21) 10:25 AM EST (1/21)
Length of Visible Light 11h 10m
Length of Day
10h 17m
Waning Gibbous, 75% of the Moon is Illuminated
Jan 21
Waning Gibbous
Jan 24
Last Quarter
Jan 30
New
Feb 6
First Quarter
Feb 14
Full

Hourly Weather History & Observations

Time (EST) Temp. Windchill Dew Point Humidity Pressure Visibility Wind Dir Wind Speed Gust Speed Precip Events Conditions
12:53 AM 45.0 °F 43.5 °F 25.0 °F 46% 29.86 in 10.0 mi SSW 3.5 mph - N/A   Clear
1:53 AM 48.0 °F - 26.1 °F 42% 29.83 in 10.0 mi WSW 9.2 mph - N/A   Clear
2:53 AM 44.1 °F 41.5 °F 25.0 °F 47% 29.82 in 10.0 mi SW 4.6 mph - N/A   Clear
3:53 AM 37.9 °F 34.4 °F 25.0 °F 60% 29.80 in 10.0 mi SSW 4.6 mph - N/A   Clear
4:53 AM 37.9 °F 34.4 °F 26.1 °F 62% 29.77 in 10.0 mi SSW 4.6 mph - N/A   Clear
5:53 AM 42.1 °F 38.4 °F 26.1 °F 53% 29.76 in 10.0 mi WSW 5.8 mph - N/A   Partly Cloudy
6:53 AM 39.9 °F 37.8 °F 26.1 °F 58% 29.76 in 10.0 mi SW 3.5 mph - N/A   Scattered Clouds
7:53 AM 41.0 °F 35.2 °F 28.0 °F 60% 29.75 in 10.0 mi WSW 9.2 mph - N/A   Partly Cloudy
8:53 AM 44.1 °F 39.0 °F 28.9 °F 55% 29.76 in 10.0 mi West 9.2 mph - N/A   Clear
9:53 AM 48.0 °F - 28.0 °F 46% 29.78 in 10.0 mi WNW 17.3 mph 28.8 mph N/A   Clear
10:53 AM 46.9 °F - 27.0 °F 46% 29.81 in 10.0 mi WNW 20.7 mph 31.1 mph N/A   Partly Cloudy
11:53 AM 45.0 °F 37.1 °F 24.1 °F 44% 29.81 in 10.0 mi WNW 19.6 mph 28.8 mph N/A   Partly Cloudy
12:53 PM 46.0 °F 40.6 °F 23.0 °F 40% 29.80 in 10.0 mi NW 11.5 mph 25.3 mph N/A   Overcast
1:53 PM 44.1 °F 36.2 °F 21.9 °F 42% 29.81 in 10.0 mi WNW 18.4 mph 36.8 mph N/A   Overcast
2:53 PM 42.1 °F 33.9 °F 23.0 °F 47% 29.82 in 10.0 mi West 17.3 mph 34.5 mph N/A   Mostly Cloudy
3:53 PM 41.0 °F 32.8 °F 23.0 °F 49% 29.86 in 10.0 mi WNW 16.1 mph 27.6 mph N/A   Mostly Cloudy
4:53 PM 37.9 °F 28.9 °F 21.0 °F 51% 29.91 in 10.0 mi WNW 16.1 mph 27.6 mph N/A   Overcast
5:53 PM 33.1 °F 20.9 °F 19.9 °F 59% 29.96 in 10.0 mi NW 21.9 mph 33.4 mph N/A   Overcast
6:53 PM 30.0 °F 18.3 °F 17.1 °F 59% 29.99 in 10.0 mi NW 17.3 mph 28.8 mph N/A   Overcast
7:53 PM 28.0 °F 13.9 °F 16.0 °F 61% 30.02 in 10.0 mi WNW 23.0 mph 28.8 mph N/A   Overcast
8:53 PM 26.1 °F 11.6 °F 12.9 °F 58% 30.04 in 10.0 mi NW 21.9 mph 29.9 mph N/A   Overcast
9:13 PM 24.8 °F 9.0 °F 12.2 °F 59% 29.99 in 10.0 mi NW 25.3 mph 34.5 mph N/A   Overcast
9:53 PM 25.0 °F 13.1 °F 12.0 °F 58% 30.04 in 10.0 mi NW 13.8 mph 27.6 mph N/A   Overcast
10:53 PM 23.0 °F 8.3 °F 10.9 °F 60% 30.05 in 10.0 mi NW 19.6 mph 26.5 mph N/A   Overcast
11:53 PM 21.9 °F 7.8 °F 10.0 °F 60% 30.06 in 10.0 mi NW 17.3 mph 25.3 mph N/A   Overcast